COSMOS 1691 DEB, 18565

Orbit data source: Space-Track

COSMOS 1691 DEB, 18565 is space debris in LEO originally from a launch on Wed, 09 Oct 1985 UTC launched from the Plesetsk Missile And Space Complex (PKMTR). Debris objects in space refer to the collection of defunct objects orbiting the Earth. Examples of debris include non-operational satellites, rocket bodies, and fragments generated from explosions, collisions, or faulty payload assembly.

Loading next visibility...
Identifier
18565, 1985-094U
Orbit
LEO
Country
Flag of CISCIS
Related business
Manufacturer
Unknown
Mission
Spacecraft
Bus & Motor
Unknown
Mass
Unknown
Launch date (UTC)
1985-10-09 (40 years ago)
Launch vehicle
Unknown
Launch site
Plesetsk Missile And Space Complex (PKMTR)
Object type
Payload
Rocket body
Debris
Shape & HBR
Unknown shape, 0.1 m
Radar Cross Section
Small (<0.1 m²)

Expand to show TLE details & history
Last TLE update: 23 hours ago

TLE from 23 hours ago
0 COSMOS 1691 DEB
1 18565U 85094U   25341.29920626  .00015516  00000-0  18670-1 0  9993
2 18565  82.4788 280.2454 0116075 299.4206 214.1177 13.63747718664984
Epoch: 2025-12-07T07:10Z
TLE epoch observation values (Epoch: 2025-12-07T07:10:51.420Z)
Latitude
26.98196°
Longitude
-87.61802°
Altitude
1,096.803 km
Speed
7.271 km/s
True Right ascension
06h 25m 38s
True Declination
26° 50' 58"
Sunlit
Object was in full shadow at epoch
Visualization orbit readout
Latitude
Unknown
Longitude
Unknown
Altitude
Unknown
Speed
Unknown
Apparent Right ascension
Unknown
Apparent Declination
Unknown
Sunlit
N/A
Visualization observer readout
Local Sidereal Time
03:52:14
Azimuth
Unknown
Elevation
Unknown
Doppler factor
Unknown
Orbital elements
Apogee altitude
1,105.151 km
Perigee altitude
933.42 km
Semi-major axis
7,397.422 km
Eccentricity
0.01161
Inclination
82.4788°
RAAN
280.2454°
Arg. of periapsis
299.4206°
True anomaly
213.38052°
Mean anomaly
214.1177°
Eccentric anomaly
213.74823°
Mean motion
3.41132 °/min
Orbital period
105.53 mins
BSTAR
0.01867
Loading maneuver chart data...
Computing Atmospheric mass density...
Loading historical data...
Loading historical data...
Loading historical data...
Loading historical data...
Loading historical data...
Loading historical data...
Loading historical data...

Documentation

Showing up to 5 results
|